Time,TemperatureF,DewpointF,PressureIn,WindDirection,WindDirectionDegrees,WindSpeedMPH,WindSpeedGustMPH,Humidity,HourlyPrecipIn,Conditions,Clouds,dailyrainin,SoftwareType,DateUTC
2013-02-07 00:01:00,39.0,32.0,-100.00,SSE,158,3.0,4.0,76,0.00,,,-99.99,,2013-02-07 08:01:00,
2013-02-07 00:11:00,39.0,32.0,-100.00,SSE,158,3.0,4.0,76,0.00,,,-99.99,,2013-02-07 08:11:00,
2013-02-07 00:42:00,38.0,32.0,-100.00,SSE,164,3.0,6.0,79,0.00,,,0.00,,2013-02-07 08:42:00,
2013-02-07 00:52:00,38.0,32.0,-100.00,SSE,164,3.0,6.0,79,0.00,,,0.00,,2013-02-07 08:52:00,
2013-02-07 01:01:00,38.0,32.0,-100.00,SSE,164,3.0,6.0,79,0.00,,,0.00,,2013-02-07 09:01:00,
2013-02-07 01:11:00,38.0,32.0,-100.00,SSE,164,3.0,6.0,79,0.00,,,0.00,,2013-02-07 09:11:00,
2013-02-07 01:32:00,38.0,32.0,-100.00,SSE,163,3.0,5.0,79,0.00,,,0.00,,2013-02-07 09:32:00,
2013-02-07 01:42:00,38.0,32.0,-100.00,SSE,163,3.0,5.0,79,0.00,,,0.00,,2013-02-07 09:42:00,
2013-02-07 01:52:00,38.0,32.0,-100.00,SSE,163,3.0,5.0,79,0.00,,,0.00,,2013-02-07 09:52:00,
2013-02-07 02:01:00,38.0,32.0,-100.00,SSE,163,3.0,5.0,79,0.00,,,0.00,,2013-02-07 10:01:00,
2013-02-07 02:11:00,38.0,32.0,-100.00,SSE,163,3.0,5.0,79,0.00,,,0.00,,2013-02-07 10:11:00,
2013-02-07 02:42:00,37.0,31.0,-100.00,SSE,163,4.0,5.0,79,0.00,,,0.00,,2013-02-07 10:42:00,
2013-02-07 02:52:00,37.0,31.0,-100.00,SSE,163,4.0,5.0,79,0.00,,,0.00,,2013-02-07 10:52:00,
2013-02-07 03:01:00,37.0,31.0,-100.00,SSE,163,4.0,5.0,79,0.00,,,0.00,,2013-02-07 11:01:00,
2013-02-07 03:11:00,37.0,31.0,-100.00,SSE,163,4.0,5.0,79,0.00,,,0.00,,2013-02-07 11:11:00,
2013-02-07 03:44:00,36.0,30.0,-100.00,SSE,168,4.0,5.0,78,0.00,,,0.00,,2013-02-07 11:44:00,
2013-02-07 03:52:00,36.0,30.0,-100.00,SSE,168,4.0,5.0,78,0.00,,,0.00,,2013-02-07 11:52:00,
2013-02-07 04:01:00,36.0,30.0,-100.00,SSE,168,4.0,5.0,78,0.00,,,0.00,,2013-02-07 12:01:00,
2013-02-07 04:11:00,36.0,30.0,-100.00,SSE,168,4.0,5.0,78,0.00,,,0.00,,2013-02-07 12:11:00,
2013-02-07 04:33:00,37.0,32.0,-100.00,SE,131,3.0,5.0,81,0.00,,,0.00,,2013-02-07 12:33:00,
2013-02-07 04:42:00,37.0,32.0,-100.00,SE,131,3.0,5.0,81,0.00,,,0.00,,2013-02-07 12:42:00,
2013-02-07 04:53:00,37.0,32.0,-100.00,SE,131,3.0,5.0,81,0.00,,,0.00,,2013-02-07 12:53:00,
2013-02-07 05:02:00,37.0,32.0,-100.00,SE,131,3.0,5.0,81,0.00,,,0.00,,2013-02-07 13:02:00,
2013-02-07 05:11:00,37.0,32.0,-100.00,SE,131,3.0,5.0,81,0.00,,,0.00,,2013-02-07 13:11:00,
2013-02-07 05:42:00,35.0,32.0,-100.00,South,171,4.0,6.0,87,0.00,,,0.00,,2013-02-07 13:42:00,
2013-02-07 05:52:00,35.0,32.0,-100.00,South,171,4.0,6.0,87,0.00,,,0.00,,2013-02-07 13:52:00,
2013-02-07 06:01:00,35.0,32.0,-100.00,South,171,4.0,6.0,87,0.00,,,0.00,,2013-02-07 14:01:00,
2013-02-07 06:32:00,35.0,30.0,-100.00,SSE,160,4.0,5.0,82,0.00,,,0.00,,2013-02-07 14:32:00,
2013-02-07 06:42:00,35.0,30.0,-100.00,SSE,160,4.0,5.0,82,0.00,,,0.00,,2013-02-07 14:42:00,
2013-02-07 06:52:00,35.0,30.0,-100.00,SSE,160,4.0,5.0,82,0.00,,,0.00,,2013-02-07 14:52:00,
2013-02-07 07:01:00,35.0,30.0,-100.00,SSE,160,4.0,5.0,82,0.00,,,0.00,,2013-02-07 15:01:00,
2013-02-07 07:11:00,35.0,30.0,-100.00,SSE,160,4.0,5.0,82,0.00,,,0.00,,2013-02-07 15:11:00,
2013-02-07 07:42:00,35.0,30.0,-100.00,SSE,160,3.0,5.0,83,0.00,,,0.00,,2013-02-07 15:42:00,
2013-02-07 07:52:00,35.0,30.0,-100.00,SSE,160,3.0,5.0,83,0.00,,,0.00,,2013-02-07 15:52:00,
2013-02-07 08:01:00,35.0,30.0,-100.00,SSE,160,3.0,5.0,83,0.00,,,0.00,,2013-02-07 16:01:00,
2013-02-07 08:11:00,35.0,30.0,-100.00,SSE,160,3.0,5.0,83,0.00,,,0.00,,2013-02-07 16:11:00,
2013-02-07 08:42:00,36.0,31.0,-100.00,SSE,158,4.0,6.0,83,0.00,,,0.00,,2013-02-07 16:42:00,
2013-02-07 08:52:00,36.0,31.0,-100.00,SSE,158,4.0,6.0,83,0.00,,,0.00,,2013-02-07 16:52:00,
2013-02-07 09:01:00,36.0,31.0,-100.00,SSE,158,4.0,6.0,83,0.00,,,0.00,,2013-02-07 17:01:00,
2013-02-07 09:11:00,36.0,31.0,-100.00,SSE,158,4.0,6.0,83,0.00,,,0.00,,2013-02-07 17:11:00,
2013-02-07 09:43:00,45.0,36.0,-100.00,East,81,2.0,4.0,71,0.00,,,-99.99,,2013-02-07 17:43:00,
2013-02-07 09:52:00,45.0,36.0,-100.00,East,81,2.0,4.0,71,0.00,,,-99.99,,2013-02-07 17:52:00,
2013-02-07 10:01:00,45.0,36.0,-100.00,East,81,2.0,4.0,71,0.00,,,-99.99,,2013-02-07 18:01:00,
2013-02-07 10:42:00,49.0,34.0,-100.00,NNW,338,2.0,5.0,57,0.00,,,0.00,,2013-02-07 18:42:00,
2013-02-07 10:52:00,49.0,34.0,-100.00,NNW,338,2.0,5.0,57,0.00,,,0.00,,2013-02-07 18:52:00,
2013-02-07 11:01:00,49.0,34.0,-100.00,NNW,338,2.0,5.0,57,0.00,,,0.00,,2013-02-07 19:01:00,
2013-02-07 11:11:00,49.0,34.0,-100.00,NNW,338,2.0,5.0,57,0.00,,,0.00,,2013-02-07 19:11:00,
2013-02-07 11:42:00,55.0,35.0,-100.00,NNW,327,3.0,6.0,47,0.00,,,0.00,,2013-02-07 19:42:00,
2013-02-07 11:52:00,55.0,35.0,-100.00,NNW,327,3.0,6.0,47,0.00,,,0.00,,2013-02-07 19:52:00,
2013-02-07 12:01:00,55.0,35.0,-100.00,NNW,327,3.0,6.0,47,0.00,,,0.00,,2013-02-07 20:01:00,
2013-02-07 12:42:00,55.0,31.0,-100.00,North,9,5.0,7.0,40,0.00,,,0.00,,2013-02-07 20:42:00,
2013-02-07 12:52:00,55.0,31.0,-100.00,North,9,5.0,7.0,40,0.00,,,0.00,,2013-02-07 20:52:00,
2013-02-07 13:01:00,55.0,31.0,-100.00,North,9,5.0,7.0,40,0.00,,,0.00,,2013-02-07 21:01:00,
2013-02-07 13:11:00,55.0,31.0,-100.00,North,9,5.0,7.0,40,0.00,,,0.00,,2013-02-07 21:11:00,
2013-02-07 13:42:00,60.0,26.0,-100.00,WNW,302,5.0,13.0,27,0.00,,,0.00,,2013-02-07 21:42:00,
2013-02-07 13:52:00,60.0,26.0,-100.00,WNW,302,5.0,13.0,27,0.00,,,0.00,,2013-02-07 21:52:00,
2013-02-07 14:01:00,60.0,26.0,-100.00,WNW,302,5.0,13.0,27,0.00,,,0.00,,2013-02-07 22:01:00,
2013-02-07 14:11:00,60.0,26.0,-100.00,WNW,302,5.0,13.0,27,0.00,,,0.00,,2013-02-07 22:11:00,
2013-02-07 14:32:00,49.0,25.0,-100.00,WSW,251,25.0,36.0,38,0.00,,,0.00,,2013-02-07 22:32:00,
2013-02-07 14:42:00,49.0,25.0,-100.00,WSW,251,25.0,36.0,38,0.00,,,0.00,,2013-02-07 22:42:00,
2013-02-07 14:52:00,49.0,25.0,-100.00,WSW,251,25.0,36.0,38,0.00,,,0.00,,2013-02-07 22:52:00,
2013-02-07 15:01:00,49.0,25.0,-100.00,WSW,251,25.0,36.0,38,0.00,,,0.00,,2013-02-07 23:01:00,
2013-02-07 15:11:00,49.0,25.0,-100.00,WSW,251,25.0,36.0,38,0.00,,,0.00,,2013-02-07 23:11:00,
2013-02-07 15:42:00,45.0,32.0,-100.00,SW,235,24.0,41.0,59,0.00,,,0.00,,2013-02-07 23:42:00,
2013-02-07 15:52:00,45.0,32.0,-100.00,SW,235,24.0,41.0,59,0.00,,,0.00,,2013-02-07 23:52:00,
2013-02-07 16:01:00,45.0,32.0,-100.00,SW,235,24.0,41.0,59,0.00,,,0.00,,2013-02-08 00:01:00,
2013-02-07 16:11:00,45.0,32.0,-100.00,SW,235,24.0,41.0,59,0.00,,,0.00,,2013-02-08 00:11:00,
2013-02-07 17:52:00,45.0,20.0,-100.00,WSW,251,15.0,29.0,37,0.00,,,0.00,,2013-02-08 01:52:00,
2013-02-07 18:01:00,45.0,20.0,-100.00,WSW,251,15.0,29.0,37,0.00,,,0.00,,2013-02-08 02:01:00,
2013-02-07 18:11:00,45.0,20.0,-100.00,WSW,251,15.0,29.0,37,0.00,,,0.00,,2013-02-08 02:11:00,
2013-02-07 18:42:00,42.0,26.0,-100.00,WSW,238,8.0,31.0,53,0.00,,,0.00,,2013-02-08 02:42:00,
2013-02-07 18:52:00,42.0,26.0,-100.00,WSW,238,8.0,31.0,53,0.00,,,0.00,,2013-02-08 02:52:00,
2013-02-07 19:01:00,42.0,26.0,-100.00,WSW,238,8.0,31.0,53,0.00,,,0.00,,2013-02-08 03:01:00,
2013-02-07 19:12:00,42.0,26.0,-100.00,WSW,238,8.0,31.0,53,0.00,,,0.00,,2013-02-08 03:12:00,
2013-02-07 19:32:00,40.0,31.0,-100.00,SW,228,15.0,26.0,70,0.00,,,0.00,,2013-02-08 03:32:00,
2013-02-07 19:42:00,40.0,31.0,-100.00,SW,228,15.0,26.0,70,0.00,,,0.00,,2013-02-08 03:42:00,
2013-02-07 19:52:00,40.0,31.0,-100.00,SW,228,15.0,26.0,70,0.00,,,0.00,,2013-02-08 03:52:00,
2013-02-07 20:01:00,40.0,31.0,-100.00,SW,228,15.0,26.0,70,0.00,,,0.00,,2013-02-08 04:01:00,
2013-02-07 20:11:00,40.0,31.0,-100.00,SW,228,15.0,26.0,70,0.00,,,0.00,,2013-02-08 04:11:00,
2013-02-07 20:32:00,40.0,29.0,-100.00,SW,222,15.0,34.0,64,0.00,,,0.00,,2013-02-08 04:32:00,
2013-02-07 20:42:00,40.0,29.0,-100.00,SW,222,15.0,34.0,64,0.00,,,0.00,,2013-02-08 04:42:00,
2013-02-07 20:52:00,40.0,29.0,-100.00,SW,222,15.0,34.0,64,0.00,,,0.00,,2013-02-08 04:52:00,
2013-02-07 21:01:00,40.0,29.0,-100.00,SW,222,15.0,34.0,64,0.00,,,0.00,,2013-02-08 05:01:00,
2013-02-07 21:11:00,40.0,29.0,-100.00,SW,222,15.0,34.0,64,0.00,,,0.00,,2013-02-08 05:11:00,
2013-02-07 21:32:00,40.0,26.0,-100.00,SW,220,14.0,35.0,56,0.00,,,0.00,,2013-02-08 05:32:00,
2013-02-07 21:42:00,40.0,26.0,-100.00,SW,220,14.0,35.0,56,0.00,,,0.00,,2013-02-08 05:42:00,
2013-02-07 21:52:00,40.0,26.0,-100.00,SW,220,14.0,35.0,56,0.00,,,0.00,,2013-02-08 05:52:00,
2013-02-07 22:01:00,40.0,26.0,-100.00,SW,220,14.0,35.0,56,0.00,,,0.00,,2013-02-08 06:01:00,
2013-02-07 22:11:00,40.0,26.0,-100.00,SW,220,14.0,35.0,56,0.00,,,0.00,,2013-02-08 06:11:00,
2013-02-07 22:42:00,42.0,23.0,-100.00,SW,225,14.0,20.0,46,0.00,,,0.00,,2013-02-08 06:42:00,
2013-02-07 22:52:00,42.0,23.0,-100.00,SW,225,14.0,20.0,46,0.00,,,0.00,,2013-02-08 06:52:00,
2013-02-07 23:01:00,42.0,23.0,-100.00,SW,225,14.0,20.0,46,0.00,,,0.00,,2013-02-08 07:01:00,
2013-02-07 23:11:00,42.0,23.0,-100.00,SW,225,14.0,20.0,46,0.00,,,0.00,,2013-02-08 07:11:00,
2013-02-07 23:32:00,40.0,22.0,-100.00,WSW,238,12.0,22.0,49,0.00,,,0.00,,2013-02-08 07:32:00,
2013-02-07 23:42:00,40.0,22.0,-100.00,WSW,238,12.0,22.0,49,0.00,,,0.00,,2013-02-08 07:42:00,
2013-02-07 23:52:00,40.0,22.0,-100.00,WSW,238,12.0,22.0,49,0.00,,,0.00,,2013-02-08 07:52:00,